Regional Weather Roundup
Issued by NWS San Diego, CA

Home | Current Version | Previous Version | Text Only | Print | Product List | Glossary On
Versions: 1 2 3 4 5 6 7 8 9 10 11 12 13 14 15 16 17 18 19 20 21 22 23 24 25 26 27 28 29 30 31 32 33 34 35 36 37 38 39 40 41 42 43 44 45 46 47 48 49 50
000
ASUS46 KSGX 290911
RWRSGX

SAN DIEGO HOURLY WEATHER ROUNDUP
NATIONAL WEATHER SERVICE SAN DIEGO CA
200 AM PDT SAT APR 29 2017

NOTE: "FAIR" INDICATES FEW OR NO CLOUDS BELOW 12,000 FEET WITH NO
SIGNIFICANT WEATHER AND/OR OBSTRUCTIONS TO VISIBILITY.

CAZ042-043-060-061-PZZ750-775-291000-

GREATER SAN DIEGO AREA

CITY           SKY/WX    TMP DP  RH WIND       PRES   REMARKS
SAN DIEGO AP   PTCLDY    63  55  75 N6        29.86R
NATIONAL CITY    N/A     60  55  82 CALM      29.85R
CHULA VISTA      N/A     57  54  87 CALM      29.76F
IMPERIAL BEACH CLEAR    N/A N/A N/A E6        29.85S
BROWN FIELD    CLEAR     58  48  69 CALM      29.84S
MIRAMAR MCAS   PTCLDY    61  46  57 N5        29.85R
MONTGOMERY FLD CLEAR     59  50  72 NE3       29.85R

$$

NORTH SAN DIEGO COUNTY

CITY           SKY/WX    TMP DP  RH WIND       PRES   REMARKS
CAMP PENDLETON CLEAR     50  46  86 CALM      29.85S
OCEANSIDE AP   CLEAR     53  49  86 NE6       29.84S
OCEANSIDE HBR    N/A     56  49  76 CALM      29.87S
VISTA            N/A     56  46  71 CALM      29.83S
CARLSBAD       CLEAR     58  49  72 E3        29.83F
DEL MAR          N/A     56  51  83 CALM      29.86S
LA JOLLA SCRIP   N/A     59  53  80 CALM      29.84R
FALLBROOK        N/A     65  39  38 SW7       29.84R
ESCONDIDO        N/A     57  46  65 CALM      29.86S
SAN MARCOS       N/A     57  46  66 CALM      29.86S
POWAY            N/A     52  43  72 CALM      29.87R

$$

EAST SAN DIEGO COUNTY

CITY           SKY/WX    TMP DP  RH WIND       PRES   REMARKS
RAMONA         CLEAR     62  21  20 CALM      29.87S
SANTEE LAKES     N/A     53  45  74 CALM      29.85R
LA MESA          N/A     59  45  60 CALM      29.77S
JAMUL            N/A     53  44  72 CALM      29.85S
DESCANSO N       N/A     57  18  21 NE16      29.82R
MT. LAGUNA OBS   N/A     44  11  26 NE17      29.57S
CAMPO            N/A     59  14  17 NE12G22   29.87R

$$

ORANGE COUNTY AND THE LOS ANGELES BASIN

CITY           SKY/WX    TMP DP  RH WIND       PRES   REMARKS
JOHN WAYNE AP  CLEAR     74  13   9 NE17G32   29.86R
LAKE FOREST FR   N/A     69  12  11 NE14      29.69S
HUNTINGTON BCH   N/A     73  23  15 E16       29.87R
LOS ALAMITOS   FAIR      73  14  10 NE25G32   29.86R
FULLERTON      CLEAR     74  12   9 NE16G22   29.87R
LONG BEACH     CLEAR     73   5   7 NE17G26   29.87R
L.A. AP        CLEAR     72  11   9 NE9       29.87R
L.A. DOWNTOWN  CLEAR     74  10   8 VRB5      29.87R

$$

THE INLAND EMPIRE

CITY           SKY/WX    TMP DP  RH WIND       PRES   REMARKS
CORONA         CLEAR     67  16  14 NE7       29.94R
CHINO          CLEAR     70  14  11 NE9G20    29.93R
ONTARIO        PTCLDY    68  10  10 NE16G29   29.93R
SAN BERNARDINO FAIR      69  12  11 N7G18     29.95R
RIVERSIDE AP   CLEAR     69  14  12 NE13G24   29.93R
MORENO VALLEY    N/A     64  23  20 NE3       28.06R
MARCH ARB      CLEAR     65   9  11 N9        29.94R
HORSETHIEF CYN   N/A     64  12  13 NW2       29.93R
PERRIS           N/A     63  28  27 NE2       29.95R
HEMET EAST       N/A     63   9  12 E2        29.95R
FRENCH VALLEY  FAIR      64  16  15 N12       29.91S
TEMECULA         N/A     57  41  56 SW3       29.95R

$$

SAN BERNARDINO AND RIVERSIDE COUNTY MOUNTAINS

CITY           SKY/WX    TMP DP  RH WIND       PRES   REMARKS
BIG BEAR AP    CLEAR     36   5  27 NE17G33   30.05F WCI  25
ANGELUS OAKS     N/A     43  14  30 CALM      29.79F
PINE COVE        N/A     44  11  26 CALM      29.87R

$$

SOUTHERN DESERT INCLUDING THE COACHELLA VALLEY

CITY           SKY/WX    TMP DP  RH WIND       PRES   REMARKS
PALM SPRINGS   CLEAR     72   9   8 N12       29.97R
PALM DESERT      N/A     72  15  11 CALM        N/A
THERMAL        CLEAR     73   9   8 NW14      29.90R
BLYTHE         CLEAR     69  14  12 N20       29.90R
IMPERIAL AP    CLEAR     65  22  19 N5        29.88R
EL CENTRO NAS  CLEAR     61  19  19 NE10      29.90R
YUMA AZ        CLEAR     68  15  13 N8        29.85
MEXICALI         N/A    N/A N/A N/A MISG        N/A

$$

UPPER DESERT

CITY           SKY/WX    TMP DP  RH WIND       PRES   REMARKS
VICTORVILLE AP CLEAR     54   9  16 N13       30.04S
HESPERIA         N/A     56  12  17 NE5       30.10R
PALMDALE       CLEAR     49  16  26 E5        30.05R
LANCASTER      CLEAR     49  14  24 CALM      30.05R
EDWARDS AFB    CLEAR     55  13  18 NE16      30.02R
DAGGETT        CLEAR     58  12  16 N16       30.03R
29 PALMS N     CLEAR     61   4  10 N13G24    30.05R
NEEDLES        CLEAR     65  17  15 N14       29.93R

$$

REGIONAL REPORTS

CITY           SKY/WX    TMP DP  RH WIND       PRES   REMARKS
SANTA BARBARA  CLEAR     64  26  23 CALM      29.89S
SANDBERG       CLEAR     45  24  43 NE7       30.07R
LAS VEGAS NV   CLEAR     58  17  20 N17G23    30.00F
PHOENIX AZ     CLEAR     64  14  14 NW13      29.78S
TIJUANA        CLEAR     57  43  58 CALM      29.87S
ENSENADA NW      N/A     59  32  35 NW2       29.80F

$$

OFFSHORE ISLANDS

CITY           SKY/WX    TMP DP  RH WIND       PRES   REMARKS
CATALINA ARPT  CLEAR     66  22  18 E16G28    29.91R
SAN NICOLAS IS CLEAR     57  42  57 NW18      29.89S

$$

MARINE AND OFFSHORE BUOY REPORTS

STATION/POSITION SKY/WX   TEMP    WIND        PRES    VSBY  SWELL
                          AIR SEA DIR/SP/G                  HT/PER/DIR
                          (F)     (DEG/KT/KT) (MB)    (MI)  (FT/S/D)
TANNER BANKS               56 56  330/ 19/ 23 1011.3R         8/320/10
S CLEMENTE BASIN           63 63  350/  6/  6 1010.3R         8/300/ 9
SAN NICOLAS IS.               54                N/A           5/290/12
SO. S. ROSA ISLA           53 52  330/ 17/ 21 1012.9R         7/300/10
W. S. BARBARA CH           52 50  320/ 17/ 21 1013.5R         8/300/12
M. S. BARBARA CH                  260/  6/ 10 1013.0R
S. MONICA BASIN            67 61   40/ 12/ 16 1011.5R         5/270/10
S PEDRO CHANNEL               57                N/A           2/270/11
CMP PENDLETON NS              65                N/A           2/250/11
OCEANSIDE OFFSHR              64                N/A           2/280/11
TORREY PINES OTR              64                N/A           3/280/11
POINT LOMA SOUTH              62                N/A           3/290/11

$$





USA.gov is the U.S. government's official web portal to all federal, state and local government web resources and services.